Weather History for Madisonville, KY

Change the Weather History Date:

Tuesday, November 20, 2012

  Actual Average (KOWB) Record (KOWB)
Temperature  
Mean Temperature 58 °F -  
Max Temperature 69 °F 57 °F 75 °F (1942)
Min Temperature 46 °F 37 °F 16 °F (1937)
Degree Days  
Heating Degree Days 8    
Growing Degree Days 8 (Base 50)    
Moisture  
Dew Point 47 °F    
Average Humidity 67    
Maximum Humidity 90    
Minimum Humidity 46    
Precipitation  
Precipitation 0.00 in - - ()
Sea Level Pressure  
Sea Level Pressure 30.12 in    
Wind  
Wind Speed 3 mph ()    
Max Wind Speed 12 mph    
Max Gust Speed -    
Visibility 10.0 miles    
Events      
Averages and records for this station are not official NWS values.
T = Trace of Precipitation, MM = Missing Value Source: Averaged Metar Reports

Daily Weather History Graph

Daily Weather History Graph

Search for Another Location

Airport:

Trip Planner

Search our weather history database for the weather conditions in past years. The results will help you decide how hot, cold, wet, or windy it might be!

Date:

Astronomy

Nov. 20, 2012 Rise Set
Actual Time 6:34 AM CST 4:35 PM CST
Civil Twilight 6:06 AM CST 5:03 PM CST
Nautical Twilight 5:34 AM CST 5:35 PM CST
Astronomical Twilight 5:03 AM CST 6:06 PM CST
Moon 12:13 PM CST (11/20) No Moon Set
Length of Visible Light 10h 57m
Length of Day
10h 01m
First Quarter, 51% of the Moon is Illuminated
Nov 20
First Quarter
Nov 28
Full
Dec 6
Last Quarter
Dec 13
New
Dec 19
First Quarter

Hourly Weather History & Observations

Time (CST) Temp. Dew Point Humidity Pressure Visibility Wind Dir Wind Speed Gust Speed Precip Events Conditions
12:15 AM 48.0 °F 42.6 °F 82% 30.17 in 10.0 mi Calm Calm - N/A   Clear
12:35 AM 46.9 °F 43.3 °F 87% 30.17 in 10.0 mi Calm Calm - N/A   Mostly Cloudy
12:55 AM 48.7 °F 43.7 °F 83% 30.17 in 10.0 mi Calm Calm - N/A   Overcast
1:15 AM 49.6 °F 43.7 °F 80% 30.16 in 10.0 mi Calm Calm - N/A   Overcast
1:35 AM 48.9 °F 44.8 °F 86% 30.16 in 10.0 mi Calm Calm - N/A   Overcast
1:55 AM 49.5 °F 44.1 °F 82% 30.16 in 10.0 mi Calm Calm - N/A   Overcast
2:15 AM 50.5 °F 44.1 °F 78% 30.16 in 10.0 mi Calm Calm - N/A   Overcast
2:35 AM 49.1 °F 46.2 °F 90% 30.16 in 10.0 mi Calm Calm - N/A   Overcast
6:15 AM 49.5 °F 43.7 °F 81% 30.14 in 10.0 mi SSW 3.5 mph - N/A   Overcast
6:35 AM 50.4 °F 44.1 °F 79% 30.14 in 10.0 mi SW 4.6 mph - N/A   Overcast
6:55 AM 52.2 °F 43.2 °F 71% 30.14 in 10.0 mi SSW 3.5 mph - N/A   Overcast
7:15 AM 52.2 °F 43.9 °F 73% 30.15 in 10.0 mi Calm Calm - N/A   Overcast
7:35 AM 52.9 °F 43.7 °F 71% 30.15 in 10.0 mi SSW 3.5 mph - N/A   Overcast
7:55 AM 53.6 °F 43.2 °F 68% 30.16 in 10.0 mi SSW 3.5 mph - N/A   Overcast
8:15 AM 54.0 °F 44.4 °F 70% 30.16 in 10.0 mi South 3.5 mph - N/A   Overcast
8:35 AM 55.4 °F 44.1 °F 66% 30.15 in 10.0 mi SSW 3.5 mph - N/A   Overcast
8:55 AM 57.2 °F 45.0 °F 64% 30.15 in 10.0 mi SSW 3.5 mph - N/A   Overcast
9:15 AM 59.0 °F 45.0 °F 60% 30.15 in 10.0 mi SW 4.6 mph - N/A   Overcast
9:35 AM 62.4 °F 45.0 °F 53% 30.14 in 10.0 mi WSW 10.4 mph - N/A   Mostly Cloudy
9:55 AM 63.5 °F 44.8 °F 51% 30.14 in 10.0 mi WSW 8.1 mph - N/A   Scattered Clouds
10:15 AM 64.8 °F 45.9 °F 50% 30.13 in 10.0 mi West 11.5 mph - N/A   Clear
10:35 AM 65.1 °F 45.3 °F 49% 30.13 in 10.0 mi WSW 9.2 mph - N/A   Clear
10:55 AM 66.0 °F 45.9 °F 48% 30.12 in 10.0 mi WSW 10.4 mph - N/A   Clear
11:15 AM 66.7 °F 45.5 °F 46% 30.11 in 10.0 mi SW 11.5 mph - N/A   Clear
11:35 AM 66.7 °F 45.7 °F 47% 30.10 in 10.0 mi SW 9.2 mph - N/A   Clear
11:55 AM 67.1 °F 46.4 °F 47% 30.09 in 10.0 mi West 8.1 mph - N/A   Scattered Clouds
12:15 PM 67.8 °F 47.5 °F 48% 30.08 in 10.0 mi West 6.9 mph - N/A   Mostly Cloudy
12:35 PM 68.0 °F 46.4 °F 46% 30.07 in 10.0 mi WNW 5.8 mph - N/A   Mostly Cloudy
12:55 PM 68.0 °F 47.5 °F 48% 30.07 in 10.0 mi WSW 5.8 mph - N/A   Scattered Clouds
1:15 PM 68.4 °F 49.5 °F 51% 30.06 in 10.0 mi West 5.8 mph - N/A   Scattered Clouds
1:35 PM 69.4 °F 50.0 °F 50% 30.06 in 10.0 mi WNW 5.8 mph - N/A   Scattered Clouds
1:55 PM 68.7 °F 49.6 °F 51% 30.06 in 10.0 mi WSW 8.1 mph - N/A   Scattered Clouds
2:35 PM 68.2 °F 50.2 °F 53% 30.05 in 10.0 mi West 5.8 mph - N/A   Clear
2:55 PM 67.5 °F 49.8 °F 53% 30.05 in 10.0 mi West 5.8 mph - N/A   Clear
3:15 PM 67.8 °F 50.2 °F 53% 30.05 in 10.0 mi WSW 5.8 mph - N/A   Clear
3:35 PM 67.1 °F 50.9 °F 56% 30.06 in 10.0 mi WNW 3.5 mph - N/A   Clear
3:55 PM 65.7 °F 50.5 °F 58% 30.06 in 10.0 mi WNW 4.6 mph - N/A   Clear
4:15 PM 64.8 °F 49.3 °F 57% 30.06 in 10.0 mi WNW 4.6 mph - N/A   Clear
4:35 PM 64.2 °F 49.3 °F 58% 30.06 in 10.0 mi NNW 4.6 mph - N/A   Mostly Cloudy
4:55 PM 63.0 °F 50.0 °F 63% 30.06 in 10.0 mi Calm Calm - N/A   Overcast
5:15 PM 64.4 °F 49.3 °F 58% 30.07 in 10.0 mi NW 3.5 mph - N/A   Overcast
5:35 PM 63.1 °F 49.5 °F 61% 30.07 in 10.0 mi Calm Calm - N/A   Overcast
5:55 PM 62.8 °F 49.5 °F 62% 30.08 in 10.0 mi Calm Calm - N/A   Overcast
6:15 PM 60.8 °F 50.0 °F 68% 30.09 in 10.0 mi Calm Calm - N/A   Overcast
6:35 PM 60.1 °F 50.2 °F 70% 30.09 in 10.0 mi North 4.6 mph - N/A   Overcast
6:55 PM 60.1 °F 50.9 °F 72% 30.10 in 10.0 mi North 6.9 mph - N/A   Overcast
7:15 PM 60.3 °F 50.7 °F 71% 30.10 in 10.0 mi Calm Calm - N/A   Overcast
7:35 PM 60.8 °F 50.5 °F 69% 30.11 in 10.0 mi NE 3.5 mph - N/A   Overcast
7:55 PM 59.9 °F 50.4 °F 71% 30.12 in 10.0 mi NNE 4.6 mph - N/A   Overcast
8:15 PM 58.5 °F 50.2 °F 74% 30.12 in 10.0 mi NNE 3.5 mph - N/A   Overcast
8:35 PM 57.6 °F 50.5 °F 77% 30.13 in 10.0 mi NNE 6.9 mph - N/A   Overcast
8:55 PM 57.2 °F 50.9 °F 79% 30.13 in 10.0 mi North 6.9 mph - N/A   Overcast
9:15 PM 57.2 °F 50.5 °F 78% 30.13 in 10.0 mi NNE 5.8 mph - N/A   Overcast
9:35 PM 57.9 °F 50.4 °F 76% 30.14 in 10.0 mi NNE 5.8 mph - N/A   Overcast
9:55 PM 57.0 °F 50.4 °F 78% 30.15 in 10.0 mi NNE 4.6 mph - N/A   Overcast
10:15 PM 56.7 °F 49.8 °F 78% 30.15 in 10.0 mi NNE 5.8 mph - N/A   Overcast
10:35 PM 54.7 °F 48.7 °F 80% 30.15 in 10.0 mi NNE 6.9 mph - N/A   Scattered Clouds
10:55 PM 53.2 °F 48.0 °F 82% 30.15 in 10.0 mi North 6.9 mph - N/A   Clear
11:15 PM 52.0 °F 47.3 °F 84% 30.15 in 10.0 mi North 5.8 mph - N/A   Clear
11:35 PM 52.7 °F 47.5 °F 82% 30.15 in 10.0 mi North 4.6 mph - N/A   Clear
11:55 PM 52.9 °F 47.5 °F 82% 30.15 in 10.0 mi North 4.6 mph - N/A   Clear